Simultaneous Nadir Overpasses (SNOs) Predictions

Prediction of SNOs between TERRA and METOP-C Satellite Orbit:

Table of predicted SNOs for the next 14.0 days since TLE Epoch: 11/26/2022
Index Date (TERRA) Time (TERRA) Lat,Lon (TERRA) SZA (TERRA ) Date (METOP-C) Time (METOP-C) Lat,Lon (METOP-C) SZA (METOP-C ) Distance(km) Time Diff (sec)
1 11/26/2022 06:45:25 80.99, 115.41 103.90 11/26/2022 06:44:41 80.99, 115.49 103.89 1.47 44
2 11/26/2022 07:34:48 -81.01, -76.70 76.06 11/26/2022 07:35:21 -81.01, -76.70 76.04 0.61 33
3 11/28/2022 22:57:07 81.00,-127.42 104.37 11/28/2022 22:56:21 81.00,-127.26 104.37 2.76 46
4 11/28/2022 23:46:30 -81.02, 40.48 75.59 11/28/2022 23:47:01 -81.02, 40.50 75.57 0.37 31
5 12/01/2022 15:08:49 80.97, -10.71 104.73 12/01/2022 15:08:02 80.97, -10.79 104.70 1.45 47
6 12/01/2022 15:58:11 -81.02, 157.55 75.18 12/01/2022 15:58:40 -81.02, 157.67 75.15 2.00 29
7 12/04/2022 07:20:30 80.99, 106.60 105.12 12/04/2022 07:19:41 80.99, 106.73 105.12 2.37 49
8 12/04/2022 08:09:53 -81.01, -85.49 74.84 12/04/2022 08:10:21 -81.01, -85.58 74.84 1.68 28
9 12/06/2022 23:32:12 80.97,-136.55 105.39 12/06/2022 23:31:22 80.98,-136.51 105.38 0.65 50
10 12/07/2022 00:21:34 -81.02, 31.72 74.52 12/07/2022 00:22:00 -81.02, 31.87 74.49 2.60 26
11 12/09/2022 15:43:53 80.98, -19.45 105.65 12/09/2022 15:43:02 80.97, -19.44 105.63 0.33 51



Historial Predications of SNOs between TERRA and METOP-C
